NORAD ID: 27607 Int'l Code: 2002-058C Perigee: 635.5 km Apogee: 690.9 km Inclination: 64.6° Period: 97.9 min Semi major axis: 7,034.2 km Launch date: December 20, 2002 Source: Saudi Arabia (SAUD)
Two Line Element Set (TLE):
1 27607U 02058C 10244.12229826 .00000051 00000-0 29818-4 0 2586 2 27607 064.5572 125.8693 0039357 043.1579 317.2576 14.71570641413558
More details about SAUDISAT 1C
Where is SAUDISAT 1C now?